Weather History for Bismarck, ND

Change the Weather History Date:

Sunday, August 11, 2013

  Actual Average Record
Temperature  
Mean Temperature 68 °F 71 °F  
Max Temperature 81 °F 85 °F 104 °F (2000)
Min Temperature 54 °F 57 °F 34 °F (1977)
Degree Days  
Heating Degree Days 0 1  
Month to date heating degree days 6 8  
Since 1 June heating degree days 114 118  
Since 1 July heating degree days 28 25  
Cooling Degree Days 3 7  
Month to date cooling degree days 16 77  
Year to date cooling degree days 297 381  
Since 1 June cooling degree days 285 364  
Growing Degree Days 18 (Base 50)    
Moisture  
Dew Point 54 °F    
Average Humidity 68    
Maximum Humidity 100    
Minimum Humidity 35    
Precipitation  
Precipitation 0.00 in 0.07 in 1.50 in (2012)
Month to date precipitation 0.20 0.87  
Year to date precipitation 15.14 12.40  
Snow  
Snow 0.00 in 0.00 in 0.00 in (2002)
Month to date snowfall 0.0 0.0  
Since 1 June snowfall 0.0 0.0  
Since 1 July snowfall 0.0 0.0  
Snow Depth 0.00 in    
Sea Level Pressure  
Sea Level Pressure 30.10 in    
Wind  
Wind Speed 5 mph (NNE)    
Max Wind Speed 12 mph    
Max Gust Speed 16 mph    
Visibility 10 miles    
Events      
T = Trace of Precipitation, MM = Missing Value Source: NWS Daily Summary

Daily Weather History Graph

Daily Weather History Graph

Search for Another Location

Airport:

Trip Planner

Search our weather history database for the weather conditions in past years. The results will help you decide how hot, cold, wet, or windy it might be!

Date:

Astronomy

Aug. 11, 2013 Rise Set
Actual Time 6:36 AM CDT 8:59 PM CDT
Civil Twilight 6:02 AM CDT 9:33 PM CDT
Nautical Twilight 5:19 AM CDT 10:15 PM CDT
Astronomical Twilight 4:31 AM CDT 11:02 PM CDT
Moon 11:48 AM CDT (8/11) 10:52 PM CDT (8/11)
Length of Visible Light 15h 30m
Length of Day
14h 23m
Waxing Crescent, 22% of the Moon is Illuminated
Aug 11
Waxing Crescent
Aug 14
First Quarter
Aug 20
Full
Aug 28
Last Quarter
Sep 5
New

Hourly Weather History & Observations

Time (CDT) Temp. Dew Point Humidity Pressure Visibility Wind Dir Wind Speed Gust Speed Precip Events Conditions
12:52 AM 64.0 °F 62.1 °F 93% 30.07 in 10.0 mi NNW 6.9 mph - N/A   Scattered Clouds
1:52 AM 62.1 °F 60.1 °F 93% 30.07 in 10.0 mi WNW 3.5 mph - N/A   Clear
2:52 AM 61.0 °F 59.0 °F 93% 30.09 in 10.0 mi West 4.6 mph - N/A   Clear
3:52 AM 60.1 °F 57.9 °F 93% 30.09 in 10.0 mi NE 6.9 mph - N/A   Clear
4:52 AM 57.9 °F 55.0 °F 90% 30.10 in 10.0 mi NE 3.5 mph - N/A   Clear
5:52 AM 55.9 °F 55.0 °F 97% 30.11 in 10.0 mi NNE 5.8 mph - N/A   Partly Cloudy
6:52 AM 57.0 °F 55.0 °F 93% 30.11 in 10.0 mi NE 5.8 mph - N/A   Clear
7:52 AM 57.9 °F 55.9 °F 93% 30.13 in 10.0 mi Calm Calm - N/A   Partly Cloudy
8:52 AM 61.0 °F 55.9 °F 83% 30.13 in 10.0 mi ENE 3.5 mph - N/A   Scattered Clouds
9:52 AM 66.0 °F 57.9 °F 75% 30.14 in 10.0 mi Calm Calm - N/A   Clear
10:52 AM 69.1 °F 57.0 °F 65% 30.13 in 10.0 mi East 5.8 mph - N/A   Clear
11:52 AM 72.0 °F 55.9 °F 57% 30.13 in 10.0 mi East 4.6 mph - N/A   Partly Cloudy
12:52 PM 73.0 °F 55.0 °F 53% 30.12 in 10.0 mi NNE 6.9 mph - N/A   Mostly Cloudy
1:52 PM 75.9 °F 53.1 °F 45% 30.11 in 10.0 mi North 5.8 mph - N/A   Mostly Cloudy
2:52 PM 78.1 °F 52.0 °F 40% 30.10 in 10.0 mi Variable 4.6 mph - N/A   Mostly Cloudy
3:52 PM 79.0 °F 51.1 °F 38% 30.09 in 10.0 mi Variable 4.6 mph - N/A   Mostly Cloudy
4:52 PM 79.0 °F 50.0 °F 36% 30.08 in 10.0 mi NNW 4.6 mph - N/A   Scattered Clouds
5:52 PM 78.1 °F 48.9 °F 36% 30.08 in 10.0 mi ENE 4.6 mph - N/A   Clear
6:52 PM 78.1 °F 50.0 °F 37% 30.06 in 10.0 mi WNW 6.9 mph - N/A   Clear
7:52 PM 77.0 °F 50.0 °F 39% 30.06 in 10.0 mi NW 6.9 mph - N/A   Clear
8:52 PM 71.1 °F 51.1 °F 49% 30.08 in 10.0 mi NE 6.9 mph - N/A   Clear
9:52 PM 64.9 °F 50.0 °F 58% 30.09 in 10.0 mi ENE 8.1 mph - N/A   Clear
10:52 PM 61.0 °F 51.1 °F 70% 30.10 in 10.0 mi NE 8.1 mph - N/A   Clear
11:52 PM 57.0 °F 51.1 °F 81% 30.12 in 10.0 mi ENE 3.5 mph - N/A   Clear